FW0153 Weather Reports


time (UTC)temp
C
wind
direction
speed
KPH
gust
KPH
rain 1hr
cm
rain 24hr
cm
rain mn
cm
humidity
%
barometer
mb
20260507032505 25 73 0.0 0.0 0.00 0.00 0.00 84 1011.0
20260507032005 26 27 6.4 0.0 0.00 0.00 0.00 83 1011.0
20260507031712 26 59 6.4 0.0 0.00 0.00 0.00 83 1011.0
20260507031005 26 81 6.4 0.0 0.00 0.00 0.00 82 1011.0
20260507030505 26 57 14.5 0.0 0.00 0.00 0.00 82 1010.6
20260507030005 26 76 6.4 0.0 0.00 0.00 0.00 81 1010.6
20260507025505 26 26 29.0 0.0 0.00 0.00 0.00 81 1010.3
20260507025005 26 61 0.0 0.0 0.00 0.00 0.00 80 1010.3
20260507024712 26 84 0.0 0.0 0.00 0.00 0.00 80 1009.9
20260507024213 26 54 6.4 0.0 0.00 0.00 0.00 79 1009.9
20260507023505 26 36 6.4 0.0 0.00 0.00 0.00 79 1009.9
20260507023005 26 78 6.4 0.0 0.00 0.00 0.00 78 1009.9
20260507022505 26 44 6.4 0.0 0.00 0.00 0.00 78 1009.6
20260507022212 27 79 0.0 0.0 0.00 0.00 0.00 77 1009.6
20260507021505 27 48 14.5 0.0 0.00 0.00 0.00 77 1009.6
20260507021004 27 84 6.4 0.0 0.00 0.00 0.00 76 1009.3
20260507020505 27 109 6.4 0.0 0.00 0.00 0.00 76 1009.3
20260507020005 27 65 14.5 0.0 0.00 0.00 0.00 75 1009.3
20260507015505 27 91 6.4 0.0 0.00 0.00 0.00 75 1008.9
20260507015005 27 66 6.4 0.0 0.00 0.00 0.00 74 1008.9
20260507014505 27 65 6.4 0.0 0.00 0.00 0.00 74 1008.9
20260507014212 27 39 6.4 0.0 0.00 0.00 0.00 74 1008.6
20260507013505 27 78 0.0 0.0 0.00 0.00 0.00 74 1008.6
20260507013005 28 48 20.9 0.0 0.00 0.00 0.00 73 1008.6
20260507012713 28 56 14.5 0.0 0.00 0.00 0.00 73 1008.2
20260507012005 28 70 20.9 0.0 0.00 0.00 0.00 73 1008.2
20260507011505 28 42 14.5 0.0 0.00 0.00 0.00 72 1008.2
20260507010505 28 35 29.0 0.0 0.00 0.00 0.00 72 1007.9
20260507010005 28 359 20.9 0.0 0.00 0.00 0.00 71 1007.9
20260507005505 28 20 6.4 0.0 0.00 0.00 0.00 71 1007.2
20260507005212 28 61 14.5 0.0 0.00 0.00 0.00 71 1007.6
20260507004711 28 326 20.9 0.0 0.00 0.00 0.00 71 1007.6
20260507004005 28 76 6.4 0.0 0.00 0.00 0.00 71 1007.6
20260507003505 28 42 6.4 0.0 0.00 0.00 0.00 70 1007.2
20260507003212 28 4 14.5 0.0 0.00 0.00 0.00 70 1007.6
20260507002505 29 57 6.4 0.0 0.00 0.00 0.00 69 1007.2
20260507002005 29 84 14.5 0.0 0.00 0.00 0.00 69 1007.2
20260507001505 29 81 0.0 0.0 0.00 0.00 0.00 69 1006.9
20260507001005 29 47 20.9 0.0 0.00 0.00 0.00 68 1006.9
20260507000505 30 311 14.5 0.0 0.00 0.00 0.00 67 1006.9
20260507000005 30 98 20.9 0.0 0.00 0.00 0.00 66 1006.9
20260506235504 30 123 6.4 0.0 0.00 0.00 0.00 65 1006.9
20260506235212 30 32 20.9 0.0 0.00 0.00 0.00 65 1006.9
20260506234504 30 323 20.9 0.0 0.00 0.00 0.00 65 1006.5
20260506234005 31 53 14.5 0.0 0.00 0.00 0.00 62 1006.2
20260506233505 31 44 6.4 0.0 0.00 0.00 0.00 55 1006.2
20260506233005 31 73 0.0 0.0 0.00 0.00 0.00 53 1006.5
20260506232505 31 276 14.5 0.0 0.00 0.00 0.00 53 1006.2
20260506232005 31 75 0.0 0.0 0.00 0.00 0.00 54 1006.2
20260506231505 31 324 14.5 0.0 0.00 0.00 0.00 53 1005.9
20260506231005 32 51 6.4 0.0 0.00 0.00 0.00 54 1006.2
20260506230505 32 99 0.0 0.0 0.00 0.00 0.00 52 1006.2
20260506230005 32 49 14.5 0.0 0.00 0.00 0.00 51 1006.2
20260506225505 32 68 6.4 0.0 0.00 0.00 0.00 51 1005.9
20260506225005 32 106 0.0 0.0 0.00 0.00 0.00 51 1006.2
20260506224505 32 39 14.5 0.0 0.00 0.00 0.00 51 1005.9
20260506224005 32 126 0.0 0.0 0.00 0.00 0.00 50 1006.2
20260506223506 32 18 6.4 0.0 0.00 0.00 0.00 51 1006.2
20260506223005 32 69 0.0 0.0 0.00 0.00 0.00 49 1005.9
20260506222505 32 90 6.4 0.0 0.00 0.00 0.00 48 1005.9
20260506222005 32 186 6.4 0.0 0.00 0.00 0.00 49 1006.2
20260506221505 32 302 6.4 0.0 0.00 0.00 0.00 50 1005.9
20260506221213 32 221 6.4 0.0 0.00 0.00 0.00 48 1006.2
20260506220505 33 105 6.4 0.0 0.00 0.00 0.00 49 1006.2
20260506220005 32 63 6.4 0.0 0.00 0.00 0.00 48 1006.2
20260506215507 32 153 6.4 0.0 0.00 0.00 0.00 50 1006.2
20260506143505 26 67 0.0 0.0 0.00 0.00 0.00 80 1009.3
20260506143212 25 66 0.0 0.0 0.00 0.00 0.00 81 1009.6
20260506142505 25 151 6.4 0.0 0.00 0.00 0.00 81 1009.3
20260506142005 25 59 6.4 0.0 0.00 0.00 0.00 81 1009.3
20260506141711 25 101 14.5 0.0 0.00 0.00 0.00 82 1009.3
20260506141005 25 141 29.0 0.0 0.00 0.00 0.00 81 1009.3
20260506140505 25 110 14.5 0.0 0.00 0.00 0.00 81 1009.3
20260506140005 25 166 20.9 0.0 0.00 0.00 0.00 81 1009.6
20260506135713 25 34 6.4 0.0 0.00 0.00 0.00 81 1009.3
20260506135005 25 166 6.4 0.0 0.00 0.00 0.00 82 1009.6
20260506134505 25 118 0.0 0.0 0.00 0.00 0.00 82 1009.3
20260506134004 25 129 0.0 0.0 0.00 0.00 0.00 83 1009.3
20260506133505 25 92 6.4 0.0 0.00 0.00 0.00 83 1009.6
20260506133005 25 114 0.0 0.0 0.00 0.00 0.00 84 1009.3
20260506132505 25 147 6.4 0.0 0.00 0.00 0.00 84 1009.3
20260506132005 25 140 14.5 0.0 0.00 0.00 0.00 84 1009.3
20260506131505 25 124 0.0 0.0 0.00 0.00 0.00 84 1008.9
20260506131005 25 162 6.4 0.0 0.00 0.00 0.00 85 1008.9
20260506130505 25 21 20.9 0.0 0.00 0.00 0.00 85 1008.9
20260506130005 24 120 6.4 0.0 0.00 0.00 0.00 86 1008.9
20260506125505 24 85 0.0 0.0 0.00 0.00 0.00 87 1008.9
20260506125005 24 141 0.0 0.0 0.00 0.00 0.00 87 1008.9
20260506124713 24 123 0.0 0.0 0.00 0.00 0.00 87 1008.9
20260506124005 24 121 0.0 0.0 0.00 0.00 0.00 87 1008.9
20260506123505 25 88 0.0 0.0 0.00 0.00 0.00 87 1008.6
20260506123212 25 86 6.4 0.0 0.00 0.00 0.00 86 1008.6
20260506122505 25 124 6.4 0.0 0.00 0.00 0.00 86 1008.2
20260506122005 25 87 0.0 0.0 0.00 0.00 0.00 86 1008.2
20260506121505 25 90 0.0 0.0 0.00 0.00 0.00 86 1007.9
20260506121213 25 87 0.0 0.0 0.00 0.00 0.00 86 1007.9
20260506120504 25 85 6.4 0.0 0.00 0.00 0.00 86 1007.9
20260506120005 25 109 0.0 0.0 0.00 0.00 0.00 85 1007.9
20260506115505 25 106 0.0 0.0 0.00 0.00 0.00 85 1007.9
20260506115005 25 96 0.0 0.0 0.00 0.00 0.00 85 1007.9
20260506114505 25 147 6.4 0.0 0.00 0.00 0.00 85 1007.2
20260506114005 25 95 0.0 0.0 0.00 0.00 0.00 85 1007.6
20260506113712 25 128 0.0 0.0 0.00 0.00 0.00 85 1007.2
20260506113213 25 65 6.4 0.0 0.00 0.00 0.00 85 1007.2
20260506112505 25 119 0.0 0.0 0.00 0.00 0.00 85 1007.2
20260506112005 25 146 6.4 0.0 0.00 0.00 0.00 85 1007.2
20260506111504 25 52 6.4 0.0 0.00 0.00 0.00 85 1007.2
20260506111004 25 125 0.0 0.0 0.00 0.00 0.00 85 1007.2
20260506110505 25 54 0.0 0.0 0.00 0.00 0.00 85 1007.2
20260506110005 25 76 6.4 0.0 0.00 0.00 0.00 85 1006.9
20260506105505 25 149 0.0 0.0 0.00 0.00 0.00 85 1006.9
20260506105213 25 77 0.0 0.0 0.00 0.00 0.00 85 1006.9
20260506104504 25 101 0.0 0.0 0.00 0.00 0.00 84 1006.9
20260506104005 25 162 6.4 0.0 0.00 0.00 0.00 84 1006.5
20260506103505 25 157 6.4 0.0 0.00 0.00 0.00 84 1006.5
20260506103211 25 86 14.5 0.0 0.00 0.00 0.00 84 1006.5
20260506102505 25 126 6.4 0.0 0.00 0.00 0.00 84 1006.5
20260506102005 25 91 6.4 0.0 0.00 0.00 0.00 84 1006.2
20260506101712 25 119 6.4 0.0 0.00 0.00 0.00 84 1006.2
20260506101005 25 64 6.4 0.0 0.00 0.00 0.00 84 1006.2
20260506100505 25 134 6.4 0.0 0.00 0.00 0.00 84 1006.2
20260506100005 25 120 0.0 0.0 0.00 0.00 0.00 84 1006.2
20260506095505 25 64 6.4 0.0 0.00 0.00 0.00 84 1006.2
20260506095005 25 28 6.4 0.0 0.00 0.00 0.00 84 1006.2
20260506094505 25 162 14.5 0.0 0.00 0.00 0.00 84 1006.2
20260506094005 25 53 6.4 0.0 0.00 0.00 0.00 84 1006.2
20260506093505 25 152 20.9 0.0 0.00 0.00 0.00 84 1006.2
20260506093005 25 52 14.5 0.0 0.00 0.00 0.00 84 1006.2
20260506092505 25 128 14.5 0.0 0.00 0.00 0.00 84 1006.2
20260506092004 25 89 20.9 0.0 0.00 0.00 0.00 84 1006.2
20260506091505 25 90 20.9 0.0 0.00 0.00 0.00 84 1006.2
20260506091005 25 25 6.4 0.0 0.00 0.00 0.00 84 1006.2
20260506090505 25 115 29.0 0.0 0.00 0.00 0.00 84 1006.2
20260506090005 25 165 14.5 0.0 0.00 0.00 0.00 84 1006.2
20260506085505 25 178 0.0 0.0 0.00 0.00 0.00 84 1006.2
20260506085212 25 154 6.4 0.0 0.00 0.00 0.00 84 1006.5
20260506084713 25 75 14.5 0.0 0.00 0.00 0.00 84 1006.5
20260506084005 25 152 29.0 0.0 0.00 0.00 0.00 84 1006.5
20260506083713 25 135 20.9 0.0 0.00 0.00 0.00 84 1006.5
20260506083212 25 89 14.5 0.0 0.00 0.00 0.00 85 1006.5
20260506082711 25 98 6.4 0.0 0.00 0.00 0.00 85 1006.5
20260506082005 25 48 14.5 0.0 0.00 0.00 0.00 85 1006.5
20260506081505 25 47 14.5 0.0 0.00 0.00 0.00 85 1006.5
20260506081212 25 108 14.5 0.0 0.00 0.00 0.00 85 1006.5
20260506080505 25 145 20.9 0.0 0.00 0.00 0.00 85 1006.9
20260506073505 25 44 14.5 0.0 0.00 0.00 0.00 85 1007.2
20260506073005 25 59 14.5 0.0 0.00 0.00 0.00 85 1006.9
20260506072505 25 77 14.5 0.0 0.00 0.00 0.00 85 1006.9
20260506072214 25 135 6.4 0.0 0.00 0.00 0.00 85 1006.9
20260506071505 25 122 14.5 0.0 0.00 0.00 0.00 85 1007.2
20260506071212 25 85 29.0 0.0 0.00 0.00 0.00 85 1006.9
20260506070505 25 105 20.9 0.0 0.00 0.00 0.00 85 1006.9
20260506062505 25 104 37.0 0.0 0.00 0.00 0.00 84 1007.6
20260506062213 25 98 20.9 0.0 0.00 0.00 0.00 83 1007.6
20260506061505 25 129 20.9 0.0 0.00 0.00 0.00 83 1007.6
20260506061213 25 79 14.5 0.0 0.00 0.00 0.00 83 1007.9
20260506060712 25 44 14.5 0.0 0.00 0.00 0.00 83 1007.6
20260506051006 25 319 14.5 0.0 0.00 0.00 0.00 81 1007.9
20260506050505 25 65 14.5 0.0 0.00 0.00 0.00 81 1008.2
20260506045004 25 49 29.0 0.0 0.00 0.00 0.00 80 1008.2
20260506044712 25 175 14.5 0.0 0.00 0.00 0.00 80 1007.9
20260506044005 25 149 14.5 0.0 0.00 0.00 0.00 80 1007.9
20260506043505 25 141 14.5 0.0 0.00 0.00 0.00 80 1008.2
20260506043005 25 44 29.0 0.0 0.00 0.00 0.00 80 1008.2
20260506042505 25 88 20.9 0.0 0.00 0.00 0.00 80 1008.2
20260506042213 25 95 14.5 0.0 0.00 0.00 0.00 80 1008.2
20260506041505 25 10 20.9 0.0 0.00 0.00 0.00 80 1008.2
20260506041005 25 82 6.4 0.0 0.00 0.00 0.00 80 1008.2
20260506040505 25 50 6.4 0.0 0.00 0.00 0.00 80 1008.2
20260506040005 25 50 6.4 0.0 0.00 0.00 0.00 80 1008.2
20260506035505 25 105 20.9 0.0 0.00 0.00 0.00 80 1008.2
20260506035005 25 116 14.5 0.0 0.00 0.00 0.00 79 1007.9
20260506034505 25 62 14.5 0.0 0.00 0.00 0.00 79 1007.9
20260506034005 25 116 6.4 0.0 0.00 0.00 0.00 79 1007.9
20260506033506 25 86 29.0 0.0 0.00 0.00 0.00 79 1007.9
20260506033212 25 51 14.5 0.0 0.00 0.00 0.00 79 1007.6